EW1804 Weather Reports


time (UTC)temp
C
wind
direction
speed
KPH
gust
KPH
rain 1hr
cm
rain 24hr
cm
rain mn
cm
humidity
%
barometer
mb
20260508203003 8 357 9.7 20.9 0.00 0.38 0.00 81 1001.6
20260508202503 8 2 12.9 22.5 0.00 0.43 0.00 81 1001.4
20260508202003 8 5 14.5 22.5 0.00 0.48 0.00 80 1001.4
20260508201503 9 1 12.9 22.5 0.00 0.56 0.00 80 1001.2
20260508201003 9 5 12.9 22.5 0.00 0.64 0.00 79 1001.2
20260508200503 10 12 12.9 22.5 0.00 0.74 0.00 79 1001.1
20260508200003 10 12 11.3 22.5 0.00 0.81 0.00 80 1001.1
20260508195503 10 18 11.3 22.5 0.00 0.89 0.00 79 1001.1
20260508195003 10 21 9.7 22.5 0.00 0.94 0.00 80 1001.1
20260508194503 10 21 9.7 19.3 0.00 0.99 0.00 80 1001.1
20260508194003 10 17 11.3 19.3 0.00 0.99 0.00 80 1001.0
20260508193504 10 10 11.3 19.3 0.00 1.09 0.00 80 1000.9
20260508193024 10 17 9.7 19.3 0.00 1.14 0.00 80 1001.1
20260508192524 10 16 9.7 17.7 0.00 1.14 0.00 82 1001.1
20260508192003 10 360 9.7 17.7 0.00 1.17 0.00 82 1001.1
20260508191503 10 4 9.7 20.9 0.00 1.19 0.00 82 1001.2
20260508191003 10 3 11.3 20.9 0.00 1.24 0.00 81 1001.1
20260508190503 10 2 9.7 19.3 0.00 1.27 0.00 81 1001.2
20260508190003 10 6 9.7 19.3 0.00 1.32 0.00 78 1001.0
20260508185503 11 21 11.3 19.3 0.00 1.37 0.00 78 1001.0
20260508185004 11 31 12.9 19.3 0.00 1.37 0.00 80 1000.9
20260508184503 11 26 12.9 20.9 0.00 1.40 0.00 82 1000.8
20260508184003 11 16 11.3 20.9 0.00 1.42 0.00 81 1000.8
20260508183503 11 6 9.7 19.3 0.00 1.42 0.00 81 1000.9
20260508183024 11 2 9.7 16.1 0.00 1.45 0.00 82 1001.0
20260508182503 11 2 8.0 20.9 0.00 1.45 0.00 82 1001.1
20260508182004 11 8 11.3 20.9 0.00 1.45 0.00 83 1001.1
20260508181503 10 9 12.9 20.9 0.00 1.47 0.00 83 1001.2
20260508181024 11 1 11.3 20.9 0.00 1.47 0.00 82 1001.1
20260508180503 11 357 8.0 16.1 0.00 1.47 0.00 84 1001.3
20260508180003 10 2 6.4 14.5 0.00 1.47 0.00 85 1001.4
20260508175503 10 357 8.0 16.1 0.00 1.47 0.00 85 1001.3
20260508175003 10 347 8.0 16.1 0.00 1.47 0.00 84 1001.4
20260508174506 10 347 6.4 17.7 0.00 1.47 0.00 84 1001.3
20260508174004 10 355 8.0 17.7 0.00 1.47 0.00 85 1001.4
20260508173503 10 353 8.0 17.7 0.00 1.47 0.00 88 1001.4
20260508173003 10 353 8.0 16.1 0.00 1.47 0.00 88 1001.5
20260508172524 9 354 6.4 14.5 0.00 1.47 0.00 88 1001.4
20260508172025 9 353 6.4 16.1 0.00 1.47 0.00 87 1001.4
20260508171503 8 359 6.4 16.1 0.00 1.47 0.00 89 1001.5
20260508171004 8 2 4.8 12.9 0.00 1.47 0.00 89 1001.7
20260508170524 8 5 3.2 12.9 0.00 1.47 0.00 89 1001.7
20260508170003 8 4 4.8 12.9 0.00 1.47 0.00 89 1001.6
20260508165503 8 353 4.8 9.7 0.00 1.47 0.00 90 1001.6
20260508165004 7 350 4.8 14.5 0.00 1.47 0.00 89 1001.5
20260508164503 7 349 4.8 14.5 0.00 1.47 0.00 88 1001.5
20260508164003 7 351 6.4 14.5 0.00 1.47 0.00 88 1001.6
20260508163503 8 354 6.4 14.5 0.00 1.47 0.00 87 1001.5
20260508163003 8 9 6.4 12.9 0.00 1.47 0.00 88 1001.5
20260508162524 8 11 6.4 14.5 0.00 1.47 0.00 87 1001.6
20260508162004 8 353 6.4 14.5 0.00 1.47 0.00 87 1001.6
20260508161504 8 346 6.4 12.9 0.00 1.47 0.00 88 1001.5
20260508161003 8 354 6.4 16.1 0.00 1.47 0.00 88 1001.4
20260508160503 8 352 6.4 16.1 0.00 1.47 0.00 88 1001.3
20260508160024 8 346 6.4 14.5 0.00 1.47 0.00 87 1001.4
20260508155503 8 346 6.4 14.5 0.00 1.47 0.00 86 1001.4
20260508155003 8 349 9.7 19.3 0.00 1.47 0.00 86 1001.4
20260508154503 8 1 9.7 19.3 0.00 1.47 0.00 87 1001.1
20260508154024 8 2 8.0 17.7 0.00 1.47 0.00 88 1001.2
20260508153524 8 351 6.4 16.1 0.00 1.47 0.00 88 1001.6
20260508153003 8 352 8.0 17.7 0.00 1.47 0.00 89 1001.6
20260508152503 8 347 8.0 17.7 0.00 1.47 0.00 89 1001.5
20260508152003 8 342 6.4 16.1 0.00 1.47 0.00 88 1001.6
20260508151503 8 348 8.0 16.1 0.00 1.47 0.00 89 1001.4
20260508151003 8 346 8.0 16.1 0.00 1.47 0.00 89 1001.4
20260508150503 8 343 6.4 16.1 0.00 1.47 0.00 89 1001.4
20260508150003 8 354 6.4 16.1 0.00 1.47 0.00 90 1001.5
20260508145503 8 1 8.0 16.1 0.00 1.47 0.00 89 1001.6
20260508145024 7 353 8.0 17.7 0.00 1.47 0.00 89 1001.7
20260508144503 7 349 8.0 17.7 0.00 1.47 0.00 88 1001.8
20260508144003 7 344 8.0 16.1 0.00 1.47 0.00 88 1001.8
20260508143503 8 341 8.0 14.5 0.00 1.47 0.00 88 1001.8
20260508143003 8 346 9.7 19.3 0.00 1.47 0.00 89 1001.7
20260508142524 8 345 9.7 19.3 0.00 1.47 0.00 89 1001.8
20260508142003 8 345 6.4 17.7 0.00 1.47 0.00 89 1002.0
20260508141525 8 347 8.0 17.7 0.00 1.47 0.00 89 1002.0
20260508141003 8 354 9.7 17.7 0.00 1.47 0.00 90 1002.2
20260508140524 8 354 9.7 19.3 0.00 1.47 0.00 91 1002.1
20260508140003 8 345 8.0 19.3 0.00 1.47 0.00 91 1002.2
20260508135503 8 337 6.4 17.7 0.00 1.47 0.00 91 1002.3
20260508135003 8 332 8.0 16.1 0.00 1.47 0.00 91 1002.5
20260508134503 8 329 8.0 16.1 0.00 1.47 0.00 92 1002.5
20260508134003 8 334 6.4 14.5 0.00 1.47 0.00 93 1002.7
20260508133503 8 349 6.4 14.5 0.00 1.47 0.00 94 1002.5
20260508133024 8 351 6.4 12.9 0.00 1.47 0.00 94 1002.6
20260508132504 8 349 6.4 12.9 0.00 1.47 0.00 94 1002.5
20260508132003 8 349 6.4 14.5 0.00 1.47 0.00 95 1002.3
20260508131504 8 348 6.4 16.1 0.00 1.47 0.00 95 1002.1
20260508131003 7 348 8.0 16.1 0.00 1.47 0.00 95 1002.1
20260508130503 8 344 8.0 17.7 0.00 1.47 0.00 95 1001.9
20260508130024 8 347 8.0 17.7 0.00 1.47 0.00 95 1002.0
20260508125524 8 352 9.7 19.3 0.00 1.47 0.00 97 1002.0
20260508125003 8 347 6.4 19.3 0.00 1.47 0.00 98 1001.8
20260508124503 8 334 6.4 19.3 0.00 1.47 0.00 98 1001.9
20260508124003 7 332 8.0 19.3 0.00 1.47 0.00 98 1001.9
20260508123504 7 333 6.4 16.1 0.00 1.47 0.00 99 1001.7
20260508123003 7 331 6.4 14.5 0.00 1.47 0.00 98 1002.0
20260508122503 6 327 6.4 17.7 0.00 1.47 0.00 98 1002.3
20260508122003 6 332 6.4 17.7 0.00 1.47 0.00 98 1002.2
20260508121503 7 341 6.4 19.3 0.00 1.47 0.00 98 1002.2
20260508121003 7 337 6.4 19.3 0.00 1.47 0.00 99 1001.9
20260508120503 6 337 6.4 17.7 0.00 1.47 0.00 98 1001.9
20260508120003 6 333 6.4 17.7 0.00 1.47 0.00 98 1002.0
20260508115504 7 324 6.4 16.1 0.00 1.47 0.00 99 1002.2
20260508115003 6 327 4.8 16.1 0.00 1.47 0.00 99 1002.3
20260508114503 6 332 4.8 12.9 0.00 1.47 0.00 99 1002.0
20260508114003 6 339 4.8 12.9 0.00 1.47 0.00 99 1002.1
20260508113504 6 346 4.8 12.9 0.00 1.47 0.00 99 1002.0
20260508113003 6 341 4.8 12.9 0.00 1.47 0.00 99 1001.9
20260508112504 6 332 4.8 12.9 0.00 1.47 0.00 99 1001.9
20260508112003 5 326 3.2 12.9 0.00 1.47 0.00 99 1002.0
20260508111503 5 336 3.2 11.3 0.00 1.47 0.00 99 1002.0
20260508111003 5 353 4.8 11.3 0.00 1.47 0.00 99 1001.9
20260508110503 5 355 4.8 9.7 0.00 1.47 0.00 99 1001.8
20260508110004 5 354 3.2 8.0 0.00 1.47 0.00 99 1002.1
20260508105506 5 348 3.2 8.0 0.00 1.47 0.00 99 1002.2
20260508105004 5 345 3.2 8.0 0.00 1.47 0.00 99 1002.3
20260508104503 5 340 3.2 8.0 0.00 1.47 0.00 99 1002.5
20260508104003 5 331 3.2 6.4 0.00 1.47 0.00 99 1002.4
20260508103503 5 329 3.2 6.4 0.00 1.47 0.00 99 1002.6
20260508103003 5 328 3.2 6.4 0.00 1.47 0.00 99 1002.4
20260508102503 4 326 1.6 6.4 0.00 1.47 0.00 99 1002.5
20260508102003 4 324 3.2 6.4 0.00 1.47 0.00 99 1002.2
20260508101525 4 324 3.2 6.4 0.00 1.47 0.00 99 1002.2
20260508101003 4 324 1.6 6.4 0.00 1.47 0.00 99 1002.2
20260508100504 4 324 3.2 6.4 0.00 1.47 0.00 99 1002.2
20260508100004 4 324 3.2 6.4 0.00 1.47 0.00 99 1002.0
20260508095503 4 330 3.2 8.0 0.00 1.47 0.00 99 1001.7
20260508095004 4 348 3.2 8.0 0.00 1.47 0.00 99 1001.6
20260508094503 4 5 1.6 9.7 0.00 1.47 0.00 99 1001.8
20260508094003 4 5 1.6 9.7 0.00 1.47 0.00 99 1001.8
20260508093503 4 14 1.6 9.7 0.00 1.47 0.00 99 1002.0
20260508093003 4 16 3.2 9.7 0.00 1.47 0.00 99 1001.9
20260508092504 4 17 3.2 9.7 0.00 1.47 0.00 99 1001.7
20260508092003 4 360 1.6 6.4 0.00 1.47 0.00 98 1002.1
20260508091504 4 360 0.0 6.4 0.00 1.47 0.00 98 1002.0
20260508091003 4 345 1.6 6.4 0.00 1.47 0.00 98 1001.8
20260508090503 4 5 3.2 9.7 0.00 1.47 0.00 98 1002.0
20260508090003 4 16 4.8 12.9 0.00 1.47 0.00 99 1001.7
20260508085503 4 16 6.4 12.9 0.00 1.47 0.00 99 1001.7
20260508085024 4 18 4.8 12.9 0.00 1.47 0.00 99 1001.9
20260508084503 4 26 3.2 11.3 0.00 1.47 0.00 99 1002.0
20260508084024 4 15 3.2 9.7 0.00 1.47 0.00 98 1001.9
20260508083525 4 3 4.8 12.9 0.00 1.47 0.00 98 1001.7
20260508083003 4 358 3.2 8.0 0.00 1.47 0.00 98 1001.6
20260508082525 4 12 3.2 8.0 0.00 1.47 0.00 99 1001.5
20260508082024 5 24 3.2 8.0 0.00 1.47 0.00 99 1001.5
20260508081504 5 32 4.8 9.7 0.00 1.47 0.00 99 1001.7
20260508081024 5 32 4.8 9.7 0.00 1.47 0.00 99 1001.5
20260508080503 5 26 1.6 8.0 0.00 1.47 0.00 99 1001.3
20260508080003 5 0 0.0 1.6 0.00 1.47 0.00 99 1001.4
20260508075504 4 19 1.6 12.9 0.00 1.47 0.00 99 1001.2
20260508075003 4 7 3.2 12.9 0.00 1.47 0.00 99 1001.3
20260508074504 4 3 4.8 12.9 0.00 1.47 0.00 99 1001.3
20260508074003 4 10 4.8 12.9 0.00 1.47 0.00 99 1001.5
20260508073503 4 22 4.8 11.3 0.00 1.47 0.00 98 1001.5
20260508073003 5 26 4.8 11.3 0.00 1.47 0.00 98 1001.4
20260508072504 5 26 6.4 12.9 0.00 1.47 0.00 98 1001.5
20260508072024 5 29 6.4 12.9 0.00 1.47 0.00 98 1001.5
20260508071503 5 35 6.4 12.9 0.00 1.47 0.00 98 1001.5
20260508071024 5 32 8.0 14.5 0.00 1.47 0.00 98 1001.3
20260508070503 5 27 6.4 14.5 0.00 1.47 0.00 98 1001.5
20260508070003 5 25 6.4 14.5 0.00 1.47 0.00 98 1001.4
20260508065525 5 23 6.4 14.5 0.00 1.47 0.00 98 1001.3
20260508065003 5 22 6.4 14.5 0.00 1.47 0.00 98 1001.4
20260508064503 5 25 6.4 14.5 0.00 1.47 0.00 98 1001.3
20260508064004 5 33 4.8 9.7 0.00 1.47 0.00 98 1001.6
20260508063506 6 34 4.8 12.9 0.00 1.47 0.00 98 1001.6
20260508063004 6 44 4.8 12.9 0.00 1.47 0.00 98 1001.5
20260508062503 6 49 4.8 9.7 0.00 1.47 0.00 98 1001.7
20260508062003 6 44 4.8 9.7 0.00 1.47 0.00 98 1001.4
20260508061524 6 44 4.8 11.3 0.00 1.47 0.00 98 1001.5
20260508061003 6 36 4.8 11.3 0.00 1.47 0.00 98 1001.4
20260508060503 6 33 6.4 12.9 0.00 1.47 0.00 98 1001.3
20260508060003 6 25 4.8 12.9 0.00 1.47 0.00 98 1001.3
20260508055503 6 23 4.8 11.3 0.00 1.47 0.00 98 1001.3
20260508055003 6 27 4.8 9.7 0.00 1.47 0.00 98 1001.5
20260508054503 7 24 4.8 9.7 0.00 1.47 0.00 98 1001.2
20260508054003 7 19 3.2 8.0 0.00 1.47 0.00 99 1001.4
20260508053503 7 17 1.6 8.0 0.00 1.47 0.00 99 1001.2
20260508053003 7 0 0.0 3.2 0.00 1.47 0.00 99 1001.1
20260508052503 7 5 0.0 3.2 0.00 1.47 0.00 98 1001.0
20260508052003 7 5 1.6 6.4 0.00 1.47 0.00 98 1001.0
20260508051503 7 5 0.0 6.4 0.00 1.47 0.00 98 1000.9
20260508051003 7 0 0.0 0.0 0.00 1.47 0.00 98 1001.0
20260508050504 7 13 0.0 8.0 0.00 1.47 0.00 98 1001.0
20260508050003 7 10 1.6 8.0 0.00 1.47 0.00 98 1001.1
20260508045503 7 7 3.2 8.0 0.00 1.47 0.00 98 1001.2
20260508045006 7 5 4.8 8.0 0.00 1.47 0.00 98 1001.3
20260508044503 8 3 4.8 8.0 0.00 1.47 0.00 98 1001.2
20260508044003 8 354 4.8 9.7 0.00 1.47 0.00 98 1001.1
20260508043504 8 350 6.4 14.5 0.00 1.47 0.00 98 1001.2
20260508043003 8 357 6.4 14.5 0.00 1.47 0.00 98 1001.4
20260508042503 9 354 6.4 16.1 0.00 1.47 0.00 98 1001.4
20260508042003 9 344 6.4 16.1 0.00 1.47 0.00 98 1001.4
20260508041524 9 324 4.8 16.1 0.00 1.47 0.00 99 1001.4
20260508041024 9 303 4.8 14.5 0.00 1.47 0.00 99 1001.3
20260508040503 9 278 4.8 11.3 0.00 1.47 0.00 99 1001.5
20260508040003 9 268 4.8 9.7 0.00 1.47 0.00 99 1001.6
20260508035503 9 272 6.4 12.9 0.00 1.47 0.00 99 1001.5
20260508035024 9 277 6.4 12.9 0.00 1.47 0.00 99 1001.5
20260508034503 9 274 4.8 11.3 0.00 1.47 0.00 99 1001.4
20260508034025 9 271 4.8 11.3 0.00 1.47 0.00 99 1001.6
20260508033503 9 272 4.8 11.3 0.00 1.47 0.00 99 1001.5
20260508033003 9 273 6.4 14.5 0.00 1.47 0.00 99 1001.5
20260508032524 9 269 8.0 14.5 0.00 1.47 0.00 99 1001.5
20260508032003 9 262 8.0 14.5 0.00 1.47 0.00 99 1001.7
20260508031503 9 260 6.4 11.3 0.00 1.47 0.00 99 1001.7
20260508031003 9 262 6.4 11.3 0.00 1.47 0.00 99 1001.6
20260508030524 9 256 6.4 11.3 0.00 1.47 0.00 99 1001.7
20260508030004 9 247 6.4 11.3 0.00 1.47 0.00 99 1001.7
20260508025503 9 244 4.8 11.3 0.00 1.47 1.47 99 1001.4
20260508025024 9 243 4.8 11.3 0.00 1.47 1.47 99 1001.5
20260508024503 9 243 4.8 9.7 0.00 1.47 1.47 99 1001.4
20260508024003 9 238 4.8 11.3 0.00 1.47 1.47 99 1001.2
20260508023503 9 234 6.4 11.3 0.00 1.47 1.47 99 1001.1
20260508023003 8 230 4.8 11.3 0.00 1.47 1.47 99 1001.2
20260508022503 8 230 6.4 9.7 0.00 1.47 1.47 99 1001.4
20260508022025 8 236 6.4 11.3 0.00 1.47 1.47 99 1001.2
20260508021504 8 237 6.4 16.1 0.00 1.47 1.47 99 1001.1
20260508021003 8 237 8.0 16.1 0.00 1.47 1.47 99 1001.3
20260508020524 8 232 9.7 16.1 0.00 1.47 1.47 99 1001.5
20260508020003 8 228 9.7 19.3 0.00 1.47 1.47 99 1001.5
20260508015503 8 228 9.7 19.3 0.00 1.47 1.47 99 1001.4
20260508015003 8 229 8.0 16.1 0.00 1.47 1.47 98 1001.4
20260508014503 8 223 8.0 14.5 0.00 1.47 1.47 98 1001.2
20260508014003 8 220 9.7 14.5 0.00 1.47 1.47 98 1001.1
20260508013504 8 215 9.7 14.5 0.00 1.47 1.47 98 1000.9
20260508013024 8 203 9.7 14.5 0.00 1.47 1.47 98 1001.0
20260508012503 8 198 9.7 16.1 0.00 1.47 1.47 98 1000.9
20260508012003 8 202 9.7 16.1 0.00 1.47 1.47 98 1001.1
20260508011504 8 203 8.0 14.5 0.00 1.47 1.47 98 1001.3
20260508011006 8 197 8.0 16.1 0.00 1.47 1.47 98 1001.3
20260508010503 8 197 9.7 16.1 0.00 1.47 1.47 98 1001.6
20260508010003 8 192 9.7 16.1 0.00 1.47 1.47 98 1001.8
20260508005504 8 190 9.7 17.7 0.00 1.47 1.47 98 1001.7
20260508005004 8 200 9.7 17.7 0.00 1.47 1.47 98 1001.7
20260508004506 8 203 9.7 16.1 0.00 1.47 1.47 98 1001.5
20260508004003 8 202 9.7 19.3 0.00 1.47 1.47 98 1001.5
20260508003503 8 206 9.7 19.3 0.00 1.47 1.47 98 1001.4
20260508003025 8 202 9.7 25.7 0.00 1.47 1.47 98 1001.6
20260508002503 8 194 12.9 25.7 0.00 1.47 1.47 98 1001.5
20260508002003 8 193 14.5 27.4 0.00 1.47 1.47 98 1001.6
20260508001503 8 192 14.5 27.4 0.00 1.47 1.47 98 1001.6
20260508001024 8 191 14.5 24.1 0.00 1.47 1.47 98 1001.7
20260508000503 8 191 14.5 24.1 0.00 1.47 1.47 98 1001.9
20260508000004 8 188 12.9 24.1 0.00 1.47 1.47 98 1002.1
20260507235503 8 191 11.3 22.5 0.00 1.47 1.47 98 1002.0
20260507235024 8 195 11.3 25.7 0.00 1.47 1.47 97 1001.8
20260507234503 8 194 14.5 25.7 0.00 1.47 1.47 97 1001.8
20260507234003 8 196 14.5 24.1 0.00 1.47 1.47 98 1002.1
20260507233003 9 204 14.5 24.1 0.00 1.47 1.47 97 1002.3
20260507232503 9 201 14.5 24.1 0.00 1.47 1.47 97 1002.3
20260507232004 9 191 16.1 25.7 0.00 1.47 1.47 97 1002.3
20260507231504 9 187 16.1 29.0 0.00 1.47 1.47 97 1002.1
20260507231003 9 193 16.1 29.0 0.03 1.47 1.47 97 1002.6
20260507230503 9 195 14.5 29.0 0.03 1.47 1.47 97 1002.4
20260507230003 9 197 11.3 25.7 0.03 1.47 1.47 97 1002.1
20260507225503 9 199 12.9 25.7 0.03 1.47 1.47 97 1002.0
20260507225003 9 201 14.5 25.7 0.03 1.47 1.47 97 1002.7
20260507224504 9 201 12.9 25.7 0.03 1.47 1.47 97 1002.5
20260507224003 9 197 14.5 24.1 0.03 1.47 1.47 97 1002.5
20260507223503 9 198 14.5 27.4 0.03 1.47 1.47 97 1002.1
20260507223003 9 196 14.5 27.4 0.03 1.47 1.47 97 1002.2
20260507222503 9 195 17.7 33.8 0.03 1.47 1.47 97 1002.4
20260507222003 9 191 19.3 33.8 0.03 1.47 1.47 97 1002.4
20260507221503 9 190 17.7 32.2 0.03 1.47 1.47 97 1002.3
20260507221003 9 195 19.3 35.4 0.03 1.45 1.45 97 1002.4
20260507220024 9 186 20.9 35.4 0.08 1.45 1.45 97 1001.9
20260507215503 9 185 22.5 35.4 0.13 1.45 1.45 97 1001.9
20260507215003 9 181 22.5 38.6 0.18 1.45 1.45 97 1001.6
20260507214503 9 178 22.5 38.6 0.23 1.45 1.45 97 1001.6
20260507214003 9 171 24.1 33.8 0.25 1.45 1.45 97 1001.6
20260507213503 9 169 24.1 38.6 0.30 1.45 1.45 97 1001.6
20260507213003 9 169 22.5 38.6 0.36 1.45 1.45 97 1001.6
20260507212503 9 168 22.5 40.2 0.41 1.45 1.45 96 1002.1
20260507211503 9 177 17.7 32.2 0.53 1.45 1.45 96 1002.5
20260507211003 9 179 16.1 30.6 0.61 1.45 1.45 96 1002.9
20260507210504 9 178 17.7 32.2 0.69 1.42 1.42 96 1003.2
20260507210024 9 179 17.7 32.2 0.71 1.37 1.37 96 1003.2
20260507205503 10 182 17.7 35.4 0.74 1.35 1.35 96 1003.8
20260507205025 10 181 17.7 35.4 0.74 1.27 1.27 96 1003.8
20260507204503 10 188 20.9 40.2 0.74 1.24 1.24 96 1003.9
20260507204003 10 192 22.5 40.2 0.71 1.19 1.19 96 1003.9
20260507203503 10 195 20.9 37.0 0.79 1.17 1.17 96 1004.2